Regional Weather Roundup
Issued by NWS

Home | Current Version | Previous Version | Text Only | Print | Product List | Glossary Off
Versions: 1 2 3 4 5 6 7 8 9 10 11 12 13 14 15 16 17 18 19 20 21 22 23 24 25 26 27 28 29 30 31 32 33 34 35 36 37 38 39 40 41 42 43 44 45 46 47 48 49 50

000
ASUS43 KOAX 201802
RWRNE

WEATHER ROUNDUP FOR NEBRASKA
NATIONAL WEATHER SERVICE OMAHA NE
100 PM CDT SAT SEP 20 2014

NOTES: SATELLITE DATA IS BEING USED TO AUGMENT CLOUD COVER ABOVE
       12000 FEET.
       "FAIR" INDICATES FEW OR NO CLOUDS BELOW 12,000 FEET WITH NO
       SIGNIFICANT WEATHER AND/OR OBSTRUCTIONS TO VISIBILITY.

  * THESE STATIONS DO NOT REPORT WEATHER SUCH AS RAIN...SNOW OR FOG.

NEZ001>004-019>022-054>056-201900-
NEBRASKA PANHANDLE

CITY           SKY/WX    TMP DP  RH WIND       PRES   REMARKS
SCOTTSBLUFF    SUNNY     79  49  34 NW8       30.19F
6HR MIN TEMP:  51; 6HR MAX TEMP:  79;

ALLIANCE       SUNNY     79  46  31 NW12G18   30.17S
6HR MIN TEMP:  46; 6HR MAX TEMP:  79;

CHADRON        SUNNY     79  46  31 NW21G29   30.15S
6HR MIN TEMP:  47; 6HR MAX TEMP:  79;

KIMBALL        SUNNY     74  45  34 W5        30.22F
SIDNEY         SUNNY     78  46  32 N8        30.21S
6HR MIN TEMP:  54; 6HR MAX TEMP:  78;

$$

NEZ057>060-069>072-079>082-201900-
SOUTHWEST NEBRASKA

CITY           SKY/WX    TMP DP  RH WIND       PRES   REMARKS
NORTH PLATTE   SUNNY     81  50  33 N7        30.09S
6HR MIN TEMP:  58; 6HR MAX TEMP:  82;

IMPERIAL       SUNNY     81  46  29 NE14      30.13S
6HR MIN TEMP:  61; 6HR MAX TEMP:  81;

LEXINGTON      SUNNY     81  52  36 N7        30.06S
MCCOOK         SUNNY     84  51  31 NE12      30.08S
6HR MIN TEMP:  60; 6HR MAX TEMP:  84;

OGALLALA       SUNNY     82  48  31 NE8       30.13F
$$

NEZ005>010-023>029-035>040-094-201900-
NORTH CENTRAL NEBRASKA

CITY           SKY/WX    TMP DP  RH WIND       PRES   REMARKS
VALENTINE      SUNNY     82  50  32 NW17G26   30.05F
6HR MIN TEMP:  53; 6HR MAX TEMP:  82;

AINSWORTH      SUNNY     78  48  34 NW15      30.06S
BROKEN BOW     SUNNY     83  50  31 N9        30.05F
6HR MIN TEMP:  60; 6HR MAX TEMP:  83;

O`NEILL        SUNNY     79  56  44 NW10      30.01F
ORD            SUNNY     81  55  40 VRB7      30.01S
6HR MIN TEMP:  61; 6HR MAX TEMP:  81;

THEDFORD       SUNNY     82  50  33 N12G17    30.09F
$$

NEZ041-046>049-061>064-073>077-083>087-201900-
SOUTH CENTRAL NEBRASKA

CITY           SKY/WX    TMP DP  RH WIND       PRES   REMARKS
GRAND ISLAND   SUNNY     84  54  35 N8        30.01S
6HR MIN TEMP:  64; 6HR MAX TEMP:  84;

AURORA         SUNNY     81  54  38 N3        30.00S
HASTINGS       SUNNY     83  52  34 NE8       30.01S
6HR MIN TEMP:  64; 6HR MAX TEMP:  83;

HEBRON         MOSUNNY   81  62  51 CALM      29.98R
HOLDREGE       SUNNY     80  50  35 NE12      30.04S
KEARNEY *      SUNNY     81  55  41 NE8       30.04S
YORK           SUNNY     81  61  50 N7        29.98S
$$

NEZ011>018-030>034-042>045-201900-
NORTHEAST NEBRASKA

CITY           SKY/WX    TMP DP  RH WIND       PRES   REMARKS
NORFOLK        SUNNY     81  58  45 VRB6      29.96F
6HR MIN TEMP:  64; 6HR MAX TEMP:  81;

ALBION         SUNNY     80  51  36 NW10G16   29.99S
COLUMBUS *     SUNNY     81  59  47 W6        29.98S
FREMONT        SUNNY     82  61  48 NW6       29.94S
$$

NEZ050>053-065>068-078-088>093-201900-
SOUTHEAST NEBRASKA

CITY           SKY/WX    TMP DP  RH WIND       PRES   REMARKS
LINCOLN        SUNNY     81  64  56 CALM      29.95S
6HR MIN TEMP:  69; 6HR MAX TEMP:  81; 6HR PCP: TRACE;

OMAHA EPPLEY   MOSUNNY   80  67  64 SW8       29.92R
6HR MIN TEMP:  69; 6HR MAX TEMP:  81;

BEATRICE       CLOUDY    79  65  62 CALM      29.97R
FALLS CITY     CLOUDY    71  71 100 SW9       29.93F
6HR MIN TEMP:  69; 6HR MAX TEMP:  75; 6HR PCP:  0.03;

NEBRASKA CITY    N/A     74  70  85 SW12      29.95S
PLATTSMOUTH    MOSUNNY   77  67  71 SW3       29.94R
$$

NEZ044-045-051>053-067-201900-
OMAHA AREA

CITY           SKY/WX    TMP DP  RH WIND       PRES   REMARKS
OMAHA EPPLEY   MOSUNNY   80  67  64 SW8       29.92R
6HR MIN TEMP:  69; 6HR MAX TEMP:  81;

FREMONT        SUNNY     82  61  48 NW6       29.94S
MILLARD        SUNNY     80  68  67 SW6       29.92F
OFFUTT AFB     SUNNY     80  71  75 W10       29.92S
PLATTSMOUTH    MOSUNNY   77  67  71 SW3       29.94R
WAHOO          FAIR      83  60  45 NW7       29.94S
$$


USA.gov is the U.S. government's official web portal to all federal, state and local government web resources and services.